Theta_e
314 314 315 315 314 315 316 316 316 316 315 315 315 314 313 314 314 314 313 311 309 307 306 304 303 302 301 301 302 303 305 307 309 312 315 317 320 321 322 322 322 321 320 318
314 315 315 316 316 315 315 315 315 315 315 315 314 314 314 315 315 315 313 309 308 306 305 304 302 301 300 300 300 300 301 304 305 308 312 314 315 317 318 319 319 318 318 317
316 317 317 316 315 316 315 315 315 315 315 314 314 315 316 316 316 312 310 307 306 305 304 302 301 300 300 300 299 299 299 301 303 305 308 310 311 311 311 313 313 314 315 314
316 316 315 316 315 315 316 315 315 314 314 316 315 318 317 316 312 311 308 306 305 304 303 302 301 300 299 299 299 298 298 298 299 302 303 304 305 306 306 307 307 308 310 312
318 314 313 315 315 315 316 312 312 313 313 316 317 317 316 315 312 311 308 307 304 302 302 301 300 298 298 297 296 297 297 297 297 297 298 299 300 301 301 303 303 302 304 306
313 309 311 314 312 313 310 312 312 312 314 318 317 318 316 313 312 310 307 305 304 302 301 300 299 298 297 297 295 294 295 296 296 296 296 296 296 297 298 299 299 300 301 302
315 313 311 310 312 311 311 313 318 320 319 320 317 317 316 314 311 310 307 304 302 301 300 299 297 297 296 295 295 294 292 293 294 294 294 294 295 295 295 295 295 296 297 299
319 319 313 310 313 315 315 317 320 321 316 317 315 318 316 310 308 306 304 302 300 299 298 298 297 296 296 294 293 293 291 291 291 291 292 291 292 293 293 294 294 294 294 294
317 317 313 311 312 312 314 315 315 317 313 317 316 315 315 310 307 304 302 300 299 298 297 296 298 295 294 294 292 291 290 289 289 289 289 288 287 288 288 288 289 291 292 292
316 317 315 311 310 311 314 312 319 317 321 320 316 313 312 312 308 304 302 299 298 297 296 295 294 294 292 292 291 290 289 288 287 288 288 287 286 286 285 285 285 285 285 289
314 316 315 314 314 314 312 312 313 313 314 316 314 311 309 309 307 303 300 299 297 296 293 295 293 291 291 290 289 289 288 288 287 286 287 287 286 286 285 284 284 284 285 285
314 316 313 314 311 311 312 314 314 317 315 314 316 316 305 302 300 300 298 298 296 294 291 293 293 291 290 289 289 288 287 287 287 286 285 287 286 285 285 284 284 284 284 284
313 313 310 306 306 312 315 312 312 313 313 314 316 311 306 303 301 301 301 300 298 295 292 291 290 291 290 289 288 288 288 287 287 286 286 285 285 285 285 284 283 283 283 284
310 310 307 306 304 307 306 306 308 311 311 308 309 309 309 307 306 304 301 299 296 294 291 290 289 289 289 290 289 288 288 287 287 286 285 285 284 284 284 283 283 283 283 282
308 304 308 308 308 306 304 304 304 305 306 307 305 304 303 303 299 296 294 293 294 293 290 289 289 289 289 289 289 289 288 287 287 286 285 284 284 283 283 282 282 282 281 281
304 299 303 299 302 302 302 301 301 301 301 301 301 301 300 295 294 295 294 292 291 290 291 289 289 289 289 289 288 288 288 288 287 286 285 283 282 282 282 282 282 282 281 281
300 297 292 294 298 298 293 297 298 298 299 299 299 297 292 294 294 291 290 290 290 290 289 289 288 289 289 288 288 287 287 286 285 285 283 282 282 282 282 282 282 281 280 280
298 293 292 290 289 291 294 296 295 295 296 295 295 290 291 290 289 290 290 290 290 290 289 289 289 289 289 288 287 286 285 283 283 282 282 281 281 281 281 280 280 279 279 279
295 297 292 289 287 293 295 294 294 294 293 294 294 292 289 289 289 288 289 289 289 289 288 289 289 288 287 286 284 283 282 280 280 280 279 279 279 278 278 277 277 277 277 277
293 294 293 288 289 287 292 293 293 292 291 288 288 286 288 290 287 287 290 289 289 289 289 289 288 287 285 283 281 280 278 278 277 277 276 275 274 273 273 273 273 273 273 273
286 286 292 293 292 290 292 290 292 288 290 288 287 288 289 288 288 288 288 288 289 289 288 287 285 283 282 280 278 276 275 275 274 273 271 270 269 269 268 268 268 268 268 269
290 287 285 285 286 291 290 290 290 289 292 290 290 289 289 288 288 288 287 287 288 286 284 282 281 279 278 277 275 273 273 272 270 269 268 267 266 265 265 265 265 265 265 266
288 290 287 289 288 291 290 290 290 291 289 290 290 289 288 288 288 287 287 287 285 282 280 279 277 276 275 273 272 271 270 269 268 266 265 265 264 264 264 264 264 264 264 265
289 289 289 288 289 290 290 289 289 289 289 289 288 287 288 288 287 287 286 284 282 280 278 276 275 273 272 271 270 269 268 267 266 264 264 264 264 263 263 264 264 264 264 264
290 289 289 290 290 290 290 290 290 289 289 287 287 287 287 286 286 285 282 279 279 277 275 273 272 270 270 269 268 267 266 265 264 264 263 263 263 263 262 263 263 264 264 265
291 291 290 290 290 290 290 289 289 289 288 288 287 286 283 283 282 280 278 277 275 274 272 270 269 268 268 267 266 266 265 264 264 263 263 263 262 262 262 262 263 264 265 266
Wind_Speed
5 3 6 11 12 12 8 9 10 7 9 9 7 7 9 13 13 13 9 10 16 16 18 25 25 25 26 30 29 27 24 18 8 5 4 7 9 8 14 13 17 18 20 26
3 6 14 9 8 6 7 10 9 7 9 3 8 10 11 18 16 14 7 12 13 13 13 17 21 25 28 28 30 31 27 22 20 12 8 3 3 4 3 11 16 14 17 20
10 7 9 5 6 10 7 8 9 10 8 4 7 8 8 10 4 14 16 14 13 11 9 10 18 24 26 28 31 31 29 26 20 15 12 7 4 5 6 4 4 11 17 13
8 6 3 4 9 6 9 5 4 4 4 3 7 7 4 9 7 14 13 12 9 8 9 11 16 20 23 25 27 30 31 29 26 19 17 15 12 7 7 6 6 6 9 17
2 3 2 4 4 1 1 4 3 3 6 6 5 4 6 9 11 8 9 10 8 8 9 9 14 19 23 25 28 28 30 32 29 24 19 16 14 11 10 9 4 8 10 13
8 1 2 3 2 2 3 3 7 6 2 4 10 7 2 3 7 6 8 8 9 8 8 10 16 16 20 23 25 28 29 29 28 29 26 20 15 15 13 12 11 11 7 9
4 8 4 2 3 3 2 2 4 2 2 6 4 5 4 3 4 13 13 9 8 8 8 7 8 15 19 22 22 22 24 24 23 23 24 25 21 16 14 16 16 14 12 11
4 3 6 5 3 1 4 2 3 5 2 6 5 6 5 7 12 13 12 10 9 8 6 7 11 14 14 14 17 17 20 21 21 21 22 22 21 22 25 23 18 15 15 14
3 4 4 3 2 3 2 2 2 2 1 0 5 7 10 11 11 10 10 9 8 6 6 7 8 9 10 11 13 13 14 16 18 18 19 22 23 24 24 24 24 23 18 15
4 5 5 3 3 4 4 1 1 1 3 5 5 7 9 6 7 9 8 8 6 5 5 4 6 8 9 9 9 11 14 17 18 19 20 20 22 23 23 23 25 25 26 23
4 1 4 6 3 3 1 2 3 3 4 3 7 7 7 7 7 8 7 6 6 5 3 2 4 6 8 8 9 11 11 12 15 17 18 19 22 23 22 23 24 24 24 25
3 3 5 6 9 7 3 5 8 6 12 5 8 9 8 9 8 8 7 5 5 4 3 1 1 6 7 7 10 12 13 13 16 16 17 14 16 18 19 22 25 25 25 25
3 3 2 9 3 5 2 3 3 3 2 9 9 7 6 6 6 4 6 6 6 5 3 1 7 7 8 10 12 13 14 16 16 17 16 17 15 16 18 23 26 25 26 28
4 2 5 7 9 7 5 10 10 4 7 13 16 18 15 14 4 7 9 9 6 6 4 1 2 4 9 9 9 11 14 16 17 20 23 26 25 22 24 25 27 29 30 30
2 5 5 11 12 12 11 13 17 14 17 17 24 22 24 19 6 4 4 6 4 5 6 4 2 2 4 8 9 9 11 16 17 20 24 32 34 34 35 35 32 30 32 31
5 4 2 7 4 8 15 20 18 19 20 22 23 25 13 3 5 3 2 1 1 3 4 5 3 3 2 6 7 10 13 16 17 20 25 33 33 34 36 37 37 41 41 39
0 2 2 7 4 3 7 19 18 15 19 19 19 12 2 3 3 4 5 5 5 3 5 4 5 7 3 4 8 12 14 15 17 22 28 29 30 31 33 34 35 36 37 37
4 4 3 4 4 3 10 2 5 8 8 4 1 3 5 3 4 4 5 7 6 5 5 5 7 5 3 7 11 11 11 14 17 21 26 29 29 31 33 31 32 34 34 35
13 7 3 3 5 7 13 7 7 5 10 1 3 6 5 4 4 6 5 5 1 5 6 6 5 5 8 10 10 12 18 20 20 22 24 25 27 30 30 31 34 36 35 35
7 11 5 2 4 8 2 5 5 4 8 5 7 4 2 3 1 5 4 4 5 7 10 2 4 6 7 8 13 20 19 19 20 21 21 24 26 30 32 33 34 36 36 38
3 1 10 11 7 6 1 6 4 4 10 3 6 5 4 4 6 8 5 6 9 5 5 4 7 7 8 13 19 19 19 18 21 25 26 26 25 28 32 34 33 35 36 37
6 5 4 1 1 8 2 3 6 5 2 5 6 7 6 8 7 6 8 6 1 4 5 7 9 9 13 14 20 18 19 22 25 26 26 27 29 29 28 31 33 32 32 33
3 7 4 7 5 3 6 6 7 4 5 7 7 9 8 8 6 8 6 3 5 6 3 7 11 16 17 18 20 20 24 28 30 30 29 28 28 28 28 29 31 31 29 29
5 7 4 3 7 12 17 11 8 9 9 7 6 8 7 8 7 7 3 2 2 3 3 6 12 15 19 20 21 23 29 30 29 29 29 29 29 30 29 28 28 29 29 29
11 4 7 10 12 17 18 13 15 16 14 10 8 8 9 7 7 4 4 3 2 0 4 7 11 14 17 23 26 28 28 29 29 27 28 29 28 29 30 29 28 30 31 31
16 20 11 10 15 14 14 11 8 8 7 8 7 5 3 4 4 4 3 3 1 2 7 11 13 16 22 25 27 28 27 26 27 27 27 29 30 29 30 30 31 31 35 37
Wind_Direction
204 212 204 229 231 244 287 277 278 283 300 294 294 295 288 275 290 292 280 67 81 74 61 46 37 32 29 29 32 35 33 30 30 6 251 239 258 253 238 230 229 229 229 219
125 228 237 255 277 289 304 301 288 276 284 7 292 295 291 279 264 269 90 69 66 60 52 49 42 36 32 31 31 32 39 40 39 38 47 21 12 234 259 240 239 240 238 228
221 253 308 284 281 276 257 252 277 275 304 296 280 267 267 271 306 93 82 79 68 63 56 46 41 38 35 33 34 34 35 38 43 40 36 35 358 357 322 280 274 251 245 243
228 257 276 262 260 263 269 297 310 341 343 229 53 300 244 270 97 83 77 75 70 63 61 51 43 40 36 36 41 41 41 40 37 44 43 37 36 13 352 311 286 280 260 247
245 136 143 215 229 104 221 11 327 276 260 309 239 254 252 239 113 98 92 90 87 80 70 63 46 43 39 40 43 44 43 42 40 40 43 37 27 17 10 24 356 311 286 257
251 100 231 225 48 171 47 277 252 230 180 275 218 202 315 85 141 134 109 99 96 83 72 67 65 55 45 39 40 40 41 41 39 37 38 37 31 18 14 23 22 359 328 304
167 204 165 96 224 120 142 255 322 302 157 226 53 343 235 74 86 150 130 108 85 75 68 66 54 47 44 37 39 39 40 41 40 41 36 34 33 36 28 19 7 3 359 358
239 284 146 186 226 16 231 203 182 259 263 302 328 246 249 120 84 87 93 93 84 76 67 62 56 50 52 48 46 42 41 37 39 37 37 36 31 30 33 29 25 15 355 335
298 197 152 159 109 139 64 208 59 15 33 225 253 275 291 125 102 105 100 83 77 61 59 67 80 78 64 54 53 53 51 46 41 44 41 35 31 34 35 27 19 13 17 5
31 306 268 91 124 218 184 93 269 74 245 231 263 309 270 28 141 105 108 110 105 88 59 60 39 69 67 56 58 62 47 39 33 35 34 31 26 29 29 27 24 16 9 8
81 192 247 356 209 257 306 272 210 237 213 235 267 262 48 93 109 114 104 104 91 60 11 27 84 66 73 61 42 38 43 38 32 26 20 20 15 15 11 12 12 9 6 6
108 186 257 234 300 294 261 254 255 241 263 238 267 250 101 104 116 130 143 175 183 148 152 231 50 64 38 39 36 25 20 12 15 16 12 5 359 357 353 355 352 353 351 352
140 173 308 323 280 72 142 60 305 335 120 257 271 259 116 138 157 172 207 221 223 190 181 351 23 25 31 17 20 12 4 7 4 1 356 352 339 335 335 332 336 336 338 337
63 243 189 225 250 336 317 298 284 235 271 276 264 285 284 281 225 238 217 219 198 180 162 235 341 352 350 352 341 347 346 347 342 338 342 344 337 330 325 323 327 327 327 328
187 236 210 254 272 289 286 281 279 274 267 260 273 276 278 288 322 55 58 77 139 168 185 173 165 245 284 309 319 316 313 318 319 316 324 330 328 326 326 326 325 320 320 318
206 251 253 277 258 275 275 269 267 268 267 266 268 270 291 73 84 45 59 119 272 351 199 160 181 241 282 297 309 313 298 291 301 305 313 318 319 319 319 319 317 316 314 313
286 120 87 259 167 307 297 251 248 253 257 261 267 274 359 354 51 66 20 335 325 310 306 275 221 232 258 349 344 321 308 301 299 300 302 303 303 302 302 304 300 299 300 301
207 140 159 250 73 233 251 133 314 287 274 273 267 170 175 121 21 355 282 247 251 271 274 284 303 273 321 356 335 317 312 310 305 297 298 300 300 299 299 298 295 294 294 291
226 215 245 198 204 279 298 289 294 288 286 207 191 173 129 35 315 274 266 71 7 282 275 296 352 34 5 349 334 321 320 320 312 306 303 303 304 304 304 301 299 299 297 293
197 212 194 179 204 224 296 100 128 106 270 228 139 135 147 294 282 269 320 320 290 296 289 275 343 1 357 351 328 325 323 318 311 310 310 309 307 303 302 300 299 298 295 292
133 289 219 236 246 266 184 127 139 121 271 171 142 183 227 236 227 248 263 270 275 272 92 27 8 12 355 331 322 324 317 311 311 308 308 307 306 303 301 298 296 296 294 292
162 175 211 196 230 275 166 86 163 210 168 172 212 237 275 268 264 262 262 262 191 87 40 12 345 332 319 322 323 320 312 314 313 314 311 309 307 305 300 296 296 295 293 291
246 203 196 186 201 174 195 211 221 242 207 226 231 258 261 254 250 254 249 235 105 94 45 327 321 318 318 323 325 317 316 318 318 316 313 310 307 303 300 297 295 293 291 287
264 229 213 62 254 260 267 258 260 270 257 254 257 264 253 246 250 241 184 132 93 56 32 317 315 316 314 322 321 317 318 318 315 312 311 312 309 308 304 298 294 292 291 289
225 127 224 241 249 257 264 260 263 266 265 265 256 243 242 221 228 191 152 134 144 324 312 309 312 312 309 317 318 320 320 321 314 311 310 309 310 305 302 297 294 292 287 286
234 238 238 242 241 243 250 249 234 228 235 250 254 229 202 172 177 124 135 133 168 297 296 307 308 311 312 315 315 319 324 324 313 307 310 309 305 303 300 300 298 295 295 297